This is the latest recevied weather packets stored in our database for station/object N3SBK. If no packets are shown the sender has not sent any weather packets the latest 10 day(s).
| Time | Temp. | Humidity | Pressure | Rain* | Wind** | Luminosity | Snow |
|---|---|---|---|---|---|---|---|
| 1777851363 | 11.67° C | 41% | 1005 hPa | 0 mm | - | 17 W/m² | - |
| 1777851058 | 12.22° C | 40% | 1005 hPa | 0 mm | - | 18 W/m² | - |
| 1777850755 | 12.22° C | 41% | 1005 hPa | 0 mm | - | 19 W/m² | - |
| 1777850453 | 12.22° C | 41% | 1005.1 hPa | 0 mm | - | 23 W/m² | - |
| 1777850151 | 12.22° C | 39% | 1005.1 hPa | 0 mm | - | 26 W/m² | - |
| 1777849847 | 12.78° C | 39% | 1005 hPa | 0 mm | - | 28 W/m² | - |
| 1777849544 | 13.33° C | 39% | 1005.1 hPa | 0 mm | - | 38 W/m² | - |
| 1777849241 | 12.78° C | 39% | 1005.1 hPa | 0 mm | - | 66 W/m² | - |
| 1777848938 | 12.78° C | 40% | 1005.3 hPa | 0 mm | - | 73 W/m² | - |
| 1777848633 | 12.22° C | 42% | 1005 hPa | 0 mm | - | 59 W/m² | - |
| 1777848331 | 12.22° C | 40% | 1005.1 hPa | 0 mm | - | 35 W/m² | - |
| 1777848028 | 12.78° C | 41% | 1005.1 hPa | 0 mm | - | 38 W/m² | - |
| 1777847726 | 13.33° C | 39% | 1005.2 hPa | 0 mm | - | 50 W/m² | - |
| 1777847421 | 13.33° C | 37% | 1005.3 hPa | 0 mm | - | 66 W/m² | - |
| 1777847120 | 13.33° C | 38% | 1005.3 hPa | 0 mm | - | 63 W/m² | - |
| 1777846818 | 13.33° C | 38% | 1005.1 hPa | 0 mm | - | 64 W/m² | - |
| 1777846516 | 13.89° C | 38% | 1005.1 hPa | 0 mm | - | 75 W/m² | - |
| 1777846213 | 13.89° C | 37% | 1005.1 hPa | 0 mm | - | 87 W/m² | - |
| 1777845909 | 13.89° C | 37% | 1005.1 hPa | 0 mm | - | 196 W/m² | - |
| 1777845606 | 13.33° C | 36% | 1005.3 hPa | 0 mm | - | 185 W/m² | - |
| 1777845303 | 14.44° C | 36% | 1005.2 hPa | 0 mm | - | 61 W/m² | - |
| 1777845000 | 14.44° C | 35% | 1005 hPa | 0 mm | - | 206 W/m² | - |
| 1777844698 | 13.89° C | 36% | 1005 hPa | 0 mm | - | 252 W/m² | - |
| 1777844394 | 13.33° C | 37% | 1005 hPa | 0 mm | - | 277 W/m² | - |
| 1777844093 | 13.89° C | 37% | 1005.1 hPa | 0 mm | - | 90 W/m² | - |
* Rain latest hour (hover to see other rain measurements)
** Current wind speed in m/s (hover to see current wind gust speed)